Facebook Twitter

Wetterstation Büchel (Flugplatz)

Messwerte
  Temperatur Wetter Niederschlag Luftdruck Wind
Sa, 01:20 Uhr 1° - - 1030 hPa 19 km/h SW
Sa, 01:00 Uhr 1° - - 1033.2 hPa 18 km/h SW
Sa, 00:20 Uhr 2° - - 1031 hPa 19 km/h SW
Sa, 00:00 Uhr 2° - - 1034.2 hPa 18 km/h W
Fr, 23:20 Uhr 2° - - 1031 hPa 23 km/h SW
Fr, 23:00 Uhr 2° - - 1034.1 hPa 25 km/h W
Fr, 22:20 Uhr 2° - - 1032 hPa 23 km/h W
Fr, 22:00 Uhr 2° - - 1034.7 hPa 22 km/h SW
Fr, 21:20 Uhr 2° - - 1032 hPa 16 km/h SW
Fr, 21:00 Uhr 2° - - 1035.2 hPa 22 km/h W
Fr, 20:20 Uhr 2° - - 1033 hPa 16 km/h SW
Fr, 20:00 Uhr 2° - - 1035.4 hPa 14 km/h SW
Fr, 19:20 Uhr 2° - - 1033 hPa 14 km/h SW
Fr, 19:00 Uhr 2° - 0 mm 1035.4 hPa 14 km/h SW
Fr, 18:20 Uhr 2° - - 1033 hPa 11 km/h SW
Fr, 18:00 Uhr 3° - - 1035.5 hPa 14 km/h SW
Fr, 17:20 Uhr 3° - - 1033 hPa 11 km/h W
Fr, 17:00 Uhr 4° - - 1035.1 hPa 11 km/h W
Fr, 16:20 Uhr 5° - - 1032 hPa 13 km/h W
Fr, 16:00 Uhr 5° - - 1034.5 hPa 14 km/h W

Alle Zeitangaben MEZ